星链-35768(STARLINK-35768)

导读

STARLINK-35678是美国SpaceX星链计划中的卫星,于2025年12月8日发射。星链计划旨在构建全球卫星互联网星座,为全球偏远地区等提供高速网络接入服务。该卫星加入庞大星链组网后,将进一步提升星座的覆盖能力与服务容量,推动全球互联网络基础设施建设。

Basic Information
目录编号:
66971
目录名称:
STARLINK-35678
国际标识:
2025-288N
轨道中心:
EARTH
卫星名称:
星链-35768
卫星全名:
星链-35768(STARLINK-35768)
卫星状态:
在轨 (已飞行279 天)
发射日期:
2025-12-08 UTC
国别 :
美国 (US)
星等 :
--
This satellite is enrolled in the Space Conjunction Data Service (SCDS) and the current flight risk assessment level is: High Risk
Orbit Information
数据来源 国际轨道数据
星历时间: 2026-09-12T19:21:44+0800
19小时前
查看轨道信息
半长轴: 6861.158km
偏心率: 0.0001694
轨道倾角: 43.005°
近地点辐角 267.741°
升交点赤经 48.587°
平近点角 92.325°
近地点: 481.858km
远地点: 484.184km
周期: 94.266分钟
每日圈数: 15.275897
Detailed Information
固有亮度:
5
最大亮度:
2.5
卫星平台:
Starlink V1.0
覆盖范围:
全球
运营商:
太空探索技术公司
运营商所在国:
美国
制造商(研发单位):
太空探索技术公司
制造商所在国:
美国
使用方式:
暂无
Satellite Introduction
Starlink 计划是 SpaceX 推出的全球卫星互联网项目,通过发射低轨道卫星,为全球尤其是偏远地区提供高速、低延迟的互联网服务。自 2019 年起,Starlink 已部署数千颗卫星,旨在缩小全球数字鸿沟,推动互联网普及。该项目还为军事、航空等行业提供通信支持,带来广泛经济效益。
2D Orbit Map
3D Orbit Map
Orbit Altitude Analysis Chart
Orbit Inclination Analysis Chart
Orbit Comprehensive Analysis Chart
View Comprehensive Chart
Conjunction Data List
Event ID Objects TCA Miss Dist (km) Collision Risk Probability Collision Risk Index (CRI) Action
CDM_260914-123305-770406-697121
2026-09-14T
12:33:58+0000
0.201 km
中距离
6.371262E-4 高风险 0.91
CDM_260914-160805-786906-697121
2026-09-14T
16:08:48+0000
0.229 km
中距离
5.567466E-4 高风险 0.9
CDM_260915-032805-770406-697121
2026-09-15T
03:28:26+0000
1.009 km
极远距离
1.647093E-5 中风险 0.59
CDM_260915-015405-770406-697121
2026-09-15T
01:54:16+0000
1.261 km
极远距离
7.614808E-6 低风险 0.53
CDM_260914-105905-770406-697121
2026-09-14T
10:59:49+0000
1.513 km
极远距离
4.167794E-6 低风险 0.47
CDM_260914-143405-786906-697121
2026-09-14T
14:34:39+0000
1.539 km
极远距离
4.035915E-6 低风险 0.47
CDM_260914-140805-770406-697121
2026-09-14T
14:08:07+0000
1.926 km
极远距离
2.077707E-6 低风险 0.41
CDM_260914-174205-786906-697121
2026-09-14T
17:42:57+0000
2.015 km
极远距离
1.893293E-6 低风险 0.41
CDM_260913-165805-456906-697121
2026-09-13T
16:58:04+0000
2.203 km
极远距离
1.619914E-6 低风险 0.39
CDM_260914-011706-429606-697121
2026-09-14T
01:17:39+0000
2.468 km
极远距离
9.94368E-7 极低风险 0.35
Miss Distance Evolution Trend with All Objects
Collision Probability Evolution Trend with All Objects